Regional Weather Roundup
Issued by NWS Tiyan, Guam

Home | Current Version | Previous Version | Text Only | Print | Product List | Glossary On
Versions: 1 2 3 4 5 6 7 8 9 10 11 12 13 14 15 16 17 18 19 20 21 22 23 24 25 26 27 28 29 30 31 32 33 34 35 36 37 38 39 40 41 42 43 44 45 46 47 48 49 50
000
ASGM40 PGUM 030010
RWRGUM
WEATHER ROUNDUP FOR THE MARIANAS
NATIONAL WEATHER SERVICE TIYAN GU
1000 AM CHST THU SEP 03 2015

GUZ001>004-030100-
MARIANA ISLANDS-

CITY           SKY/WX    TMP DP  RH WIND       PRES   REMARKS
GUAM AIRPORT   MOSUNNY   84  77  79 N9        29.91S HX  94
ANDERSEN AFB   PTSUNNY   82  77  83 N10       29.91F HX  91
ROTA AIRPORT   PTSUNNY   81  77  89 N7        29.91F
TINIAN AP      MOSUNNY   79  75  89 NE13      29.90S
SAIPAN AP      LGT RAIN  77  75  94 E12       29.91S

$$




USA.gov is the U.S. government's official web portal to all federal, state and local government web resources and services.